1531537200.67,13056,17.94,73784.8,3.21,2.55,2.55,0,*7C
1531537201.86,13057,17.94,73804.0,3.21,2.65,2.65,0,*7D
1531537203.04,13058,17.94,73810.5,3.21,2.61,2.61,0,*72
1531537204.26,13059,18.0,73806.5,3.25,2.59,2.55,0,*7B
1531537205.49,13060,17.94,73806.8,3.21,2.51,2.55,0,*7D
1531537206.71,13061,18.0,73814.8,3.25,2.55,2.55,0,*7C
1531537207.94,13062,17.94,73828.5,3.21,2.51,2.55,0,*7F
1531537209.17,13063,17.94,73826.5,3.21,2.51,2.51,0,*7A
1531537210.4,13064,17.94,73818.3,3.21,2.55,2.55,0,*7D
1531537211.63,13065,17.94,73818.5,3.21,2.51,2.51,0,*7C
1531537212.87,13066,17.94,73828.3,3.21,2.51,2.51,0,*7F
1531537214.09,13067,17.94,73830.5,3.21,2.39,2.47,0,*77
1531537215.32,13068,17.94,73830.3,3.21,2.39,2.47,0,*78
1531537216.55,13069,17.94,73838.0,3.21,2.39,2.39,0,*70
1531537217.78,13070,17.94,73834.8,3.25,2.51,2.51,0,*7C
1531537219.01,13071,17.94,73824.8,3.21,2.47,2.47,0,*79
1531537220.25,13072,17.94,73830.5,3.21,2.51,2.51,0,*7A
1531537221.47,13073,17.94,73820.8,3.21,2.55,2.55,0,*7B
1531537222.7,13074,17.94,73824.8,3.19,2.55,2.61,0,*70
1531537223.92,13075,18.0,73824.5,3.21,2.55,2.55,0,*7D
1531537225.15,13076,17.94,73812.0,3.21,2.55,2.51,0,*7A
1531537226.39,13077,17.94,73808.3,3.21,2.51,2.51,0,*7F
1531537227.61,13078,17.94,73812.0,3.21,2.39,2.47,0,*79
1531537228.84,13079,17.94,73826.3,3.21,2.47,2.47,0,*71
1531537230.09,13080,17.94,73808.3,3.19,2.47,2.55,0,*7F
1531537231.29,13081,17.94,73808.0,3.19,2.27,2.35,0,*7E
1531537232.49,13082,17.94,73816.0,3.19,2.27,2.35,0,*7D
1531537233.74,13083,18.0,73770.0,3.19,2.39,2.47,0,*76
1531537234.99,13084,18.0,73798.5,3.19,2.39,2.47,0,*71
1531537236.24,13085,17.94,73796.3,3.19,2.51,2.47,0,*7E
1531537237.49,13086,17.94,73802.8,3.19,2.55,2.55,0,*7A
1531537238.69,13087,18.0,73810.8,3.21,2.55,2.61,0,*77
1531537239.92,13088,17.94,73798.3,3.21,2.51,2.55,0,*7B
1531537241.15,13089,17.94,73804.8,3.21,2.47,2.51,0,*79
1531537242.35,13090,17.94,73790.5,3.19,2.27,2.27,0,*7D
1531537243.6,13091,17.94,73776.5,3.19,2.39,2.39,0,*7C
1531537244.86,13092,17.94,73792.3,3.19,2.39,2.39,0,*7F
1531537246.11,13093,17.94,73772.8,3.19,2.39,2.39,0,*7E
1531537247.36,13094,17.94,73784.8,3.19,2.47,2.47,0,*79
1531537248.62,13095,17.94,73770.3,3.19,2.47,2.51,0,*7F
1531537249.87,13096,17.94,73728.8,3.19,2.25,2.25,0,*7B
1531537251.09,13097,17.94,73730.5,3.19,2.39,2.27,0,*75
1531537252.34,13098,18.0,73724.0,3.19,2.47,2.47,0,*75
1531537253.54,13099,17.94,73732.5,3.19,2.27,2.27,0,*74
1531537254.76,13100,18.0,73748.0,3.17,2.21,2.25,0,*7F
1531537255.96,13101,17.94,73754.0,3.19,2.35,2.35,0,*74
1531537257.18,13102,17.94,73740.3,3.19,2.35,2.39,0,*7B
1531537258.43,13103,17.94,73774.0,3.19,2.47,2.47,0,*76
1531537259.66,13104,17.94,73774.5,3.17,2.51,2.47,0,*78
1531537260.89,13105,17.94,73786.0,3.17,2.47,2.51,0,*79
1531537262.15,13106,17.94,73770.8,3.19,2.51,2.51,0,*73
1531537263.41,13107,17.94,73782.3,3.19,2.51,2.51,0,*72
1531537264.64,13108,18.0,73816.5,3.21,2.51,2.51,0,*76
1531537265.89,13109,17.94,73830.0,3.19,2.55,2.55,0,*7C
1531537267.07,13110,17.94,73838.5,3.21,2.61,2.61,0,*7F
1531537268.27,13111,17.94,73842.5,3.25,2.69,2.65,0,*76
1531537269.46,13112,17.94,73828.5,3.21,2.65,2.61,0,*79
1531537270.64,13113,17.94,73824.8,3.21,2.65,2.65,0,*7C
1531537271.82,13114,17.94,73840.3,3.21,2.61,2.61,0,*7B
1531537273.03,13115,17.94,73832.5,3.21,2.55,2.61,0,*7D
1531537274.24,13116,17.94,73840.5,3.21,2.55,2.61,0,*7E
1531537275.44,13117,17.94,73840.3,3.25,2.59,2.65,0,*73
1531537276.64,13118,17.94,73834.8,3.21,2.65,2.55,0,*74
1531537277.85,13119,18.0,73836.5,3.21,2.55,2.61,0,*71
1531537279.03,13120,17.94,73838.0,3.21,2.61,2.65,0,*78
1531537280.21,13121,17.94,73840.8,3.21,2.61,2.61,0,*7D
1531537281.39,13122,17.94,73836.3,3.21,2.61,2.65,0,*7A
1531537282.58,13123,17.94,73836.5,3.21,2.61,2.61,0,*7F
1531537283.76,13124,17.94,73844.5,3.21,2.61,2.65,0,*7C
1531537284.94,13125,18.0,73844.5,3.25,2.65,2.65,0,*7D
1531537286.16,13126,17.94,73844.8,3.25,2.59,2.59,0,*7E
1531537287.39,13127,17.94,73846.3,3.25,2.59,2.69,0,*7C
1531537288.57,13128,17.94,73842.8,3.21,2.61,2.61,0,*74
1531537289.77,13129,17.94,73826.8,3.21,2.55,2.61,0,*72
1531537291.0,13130,17.94,73856.5,3.25,2.59,2.59,0,*79
1531537292.23,13131,17.94,73828.5,3.25,2.59,2.59,0,*78
1531537293.45,13132,17.94,73808.3,3.25,2.69,2.69,0,*7B
1531537294.67,13133,17.94,73788.5,3.25,2.59,2.55,0,*76
1531537295.9,13134,17.94,73778.3,3.21,2.51,2.51,0,*79
1531537297.13,13135,17.94,73784.8,3.25,2.51,2.51,0,*7C
1531537298.36,13136,17.94,73808.3,3.25,2.39,2.43,0,*72
1531537299.56,13137,17.94,73810.3,3.25,2.31,2.39,0,*76
1531537300.79,13138,17.94,73798.8,3.25,2.51,2.55,0,*75
1531537302.01,13139,17.94,73802.8,3.25,2.55,2.59,0,*7C
1531537303.21,13140,17.94,73822.5,3.25,2.69,2.65,0,*72
1531537304.41,13141,17.94,73840.0,3.25,2.59,2.65,0,*70
1531537305.65,13142,17.94,73832.3,3.21,2.51,2.51,0,*78
1531537306.87,13143,17.94,73828.8,3.25,2.55,2.55,0,*7D
1531537308.09,13144,17.94,73822.5,3.25,2.51,2.55,0,*7E
1531537309.31,13145,17.94,73818.5,3.25,2.51,2.55,0,*7F
1531537310.55,13146,17.94,73814.3,3.21,2.47,2.51,0,*7B
1531537311.78,13147,17.94,73824.5,3.25,2.51,2.51,0,*79
1531537313.0,13148,17.94,73820.3,3.25,2.51,2.55,0,*72
1531537314.23,13149,17.94,73816.3,3.21,2.55,2.51,0,*77
1531537315.47,13150,17.94,73762.3,3.21,2.51,2.51,0,*7B
1531537316.69,13151,17.94,73738.8,3.25,2.55,2.55,0,*7E
1531537317.91,13152,17.94,73714.3,3.25,2.55,2.43,0,*7A
1531537319.09,13153,17.94,73740.3,3.21,2.27,2.35,0,*7B
1531537320.29,13154,17.94,73738.3,3.25,2.27,2.39,0,*74
1531537321.46,13155,17.94,73748.3,3.21,2.27,2.27,0,*7E
1531537322.69,13156,17.94,73762.5,3.25,2.39,2.43,0,*74
1531537323.92,13157,17.94,73740.8,3.25,2.51,2.51,0,*78
1531537325.15,13158,17.94,73724.8,3.21,2.47,2.47,0,*73
1531537326.38,13159,17.94,73680.5,3.21,2.39,2.39,0,*72
1531537327.6,13160,17.94,73706.3,3.21,2.47,2.47,0,*78
1531537328.84,13161,17.94,73726.5,3.21,2.47,2.51,0,*7E
1531537330.06,13162,17.94,73740.0,3.25,2.59,2.69,0,*7D
1531537331.28,13163,17.94,73748.3,3.25,2.73,2.77,0,*7B
1531537332.51,13164,17.94,73764.5,3.25,2.77,2.81,0,*71
1531537333.74,13165,17.94,73782.3,3.25,2.81,2.81,0,*79
1531537334.96,13166,17.94,73794.0,3.25,2.81,2.89,0,*72
1531537336.19,13167,17.94,73792.0,3.25,2.89,2.89,0,*7B
1531537337.41,13168,17.94,73792.3,3.25,2.81,2.77,0,*7D
1531537338.67,13169,17.94,73808.8,3.27,2.77,2.81,0,*7E
1531537339.89,13170,17.94,73818.0,3.29,2.81,2.85,0,*75
1531537341.12,13171,17.94,73798.8,3.27,2.65,2.69,0,*72
1531537342.37,13172,17.94,73794.5,3.27,2.59,2.59,0,*7D
1531537343.62,13173,17.94,73810.0,3.27,2.55,2.59,0,*70
1531537344.83,13174,17.94,73806.5,3.27,2.65,2.65,0,*7B
1531537346.03,13175,17.94,73814.8,3.27,2.65,2.65,0,*7A
1531537347.24,13176,17.94,73806.3,3.27,2.65,2.65,0,*79
1531537348.44,13177,17.94,73812.8,3.27,2.65,2.65,0,*78
1531537349.69,13178,17.94,73822.3,3.27,2.69,2.69,0,*77
1531537350.94,13179,17.94,73802.5,3.27,2.77,2.77,0,*76
1531537352.19,13180,17.94,73810.5,3.27,2.77,2.89,0,*71
1531537353.42,13181,17.94,73842.3,3.29,2.85,2.81,0,*7B
1531537354.65,13182,17.94,73824.8,3.29,2.81,2.81,0,*7C
1531537355.88,13183,17.94,73836.8,3.29,2.81,2.73,0,*70
1531537357.11,13184,17.94,73844.8,3.29,2.85,2.85,0,*7A
1531537358.36,13185,17.94,73848.0,3.27,2.81,2.81,0,*75
1531537359.59,13186,17.94,73844.5,3.29,2.85,2.85,0,*78
1531537360.84,13187,17.94,73848.5,3.27,2.81,2.89,0,*7F
1531537362.06,13188,17.94,73848.0,3.29,2.85,2.85,0,*76
1531537363.29,13189,17.94,73838.0,3.29,2.85,2.85,0,*77
1531537364.52,13190,17.94,73850.0,3.29,2.81,2.81,0,*7F
1531537365.75,13191,17.94,73822.0,3.29,2.69,2.69,0,*7E
1531537366.98,13192,17.94,73824.5,3.29,2.81,2.73,0,*70
1531537368.21,13193,17.94,73830.8,3.29,2.73,2.81,0,*71
1531537369.41,13194,17.94,73832.8,3.29,2.85,2.91,0,*7E
1531537370.63,13195,17.94,73840.3,3.29,2.85,2.85,0,*7A
1531537371.86,13196,17.94,73834.5,3.29,2.73,2.81,0,*74
1531537373.11,13197,17.94,73846.5,3.31,2.81,2.85,0,*75
1531537374.36,13198,17.94,73824.8,3.31,2.81,2.73,0,*73
1531537375.61,13199,17.94,73832.3,3.31,2.59,2.59,0,*7F
1531537376.84,13200,17.94,73842.8,3.31,2.61,2.59,0,*77
1531537378.09,13201,17.94,73836.8,3.31,2.59,2.59,0,*7D
1531537379.34,13202,17.94,73846.8,3.31,2.55,2.59,0,*72
1531537380.59,13203,17.94,73842.0,3.31,2.47,2.55,0,*7C
1531537381.84,13204,17.94,73836.5,3.31,2.47,2.47,0,*78
1531537383.07,13205,17.94,73836.0,3.29,2.55,2.55,0,*70
1531537384.3,13206,17.94,73820.3,3.29,2.47,2.55,0,*70
1531537385.53,13207,17.94,73822.5,3.29,2.47,2.43,0,*76
1531537386.75,13208,17.94,73820.0,3.29,2.55,2.55,0,*7D
1531537387.96,13209,17.94,73834.3,3.29,2.59,2.61,0,*77
1531537389.15,13210,17.94,73832.5,3.29,2.61,2.61,0,*74
1531537390.4,13211,17.94,73830.8,3.27,2.55,2.59,0,*77
1531537391.62,13212,17.94,73810.8,3.29,2.55,2.55,0,*76
1531537392.88,13213,17.94,73814.0,3.27,2.43,2.43,0,*79
1531537394.13,13214,17.94,73798.0,3.27,2.17,2.21,0,*7B
1531537395.39,13215,17.94,73788.8,3.27,2.17,2.17,0,*7F
1531537396.61,13216,17.94,73806.8,3.29,2.21,2.21,0,*72
1531537397.86,13217,17.94,73786.3,3.27,2.17,2.21,0,*78
1531537399.05,13218,17.94,73798.0,3.27,2.31,2.31,0,*72
1531537400.28,13219,17.94,73808.3,3.27,2.31,2.39,0,*7B
1531537401.48,13220,17.94,73770.8,3.27,2.31,2.31,0,*79
1531537402.72,13221,17.94,73782.8,3.27,2.55,2.55,0,*78
1531537403.93,13222,17.94,73802.3,3.27,2.65,2.65,0,*7B
1531537405.15,13223,17.94,73804.5,3.27,2.65,2.69,0,*76
1531537406.4,13224,17.94,73806.0,3.27,2.59,2.59,0,*7D
1531537407.59,13225,17.94,73806.5,3.29,2.61,2.61,0,*72
1531537408.82,13226,17.94,73816.8,3.29,2.55,2.59,0,*7D
1531537410.05,13227,17.94,73798.3,3.29,2.47,2.55,0,*73
1531537411.24,13228,17.94,73788.5,3.27,2.31,2.31,0,*71
1531537412.44,13229,17.94,73788.8,3.27,2.27,2.27,0,*70
1531537413.64,13230,17.94,73800.5,3.27,2.27,2.27,0,*78
1531537414.86,13231,17.94,73788.3,3.27,2.21,2.27,0,*7F
1531537416.05,13232,17.94,73810.3,3.27,2.31,2.31,0,*7A
1531537417.28,13233,17.94,73794.0,3.25,2.39,2.39,0,*79
1531537418.5,13234,17.94,73800.8,3.25,2.39,2.39,0,*7E
1531537419.73,13235,17.94,73800.5,3.25,2.51,2.51,0,*7F
1531537420.96,13236,17.94,73812.5,3.25,2.51,2.55,0,*78
1531537422.22,13237,17.94,73812.8,3.27,2.51,2.51,0,*7F
1531537423.47,13238,17.94,73798.8,3.27,2.43,2.43,0,*70
1531537424.73,13239,17.94,73800.3,3.27,2.51,2.51,0,*71
1531537425.95,13240,17.94,73800.0,3.25,2.51,2.59,0,*75
1531537427.17,13241,17.94,73798.8,3.25,2.55,2.55,0,*7C
1531537428.4,13242,17.94,73818.0,3.25,2.39,2.43,0,*72
1531537429.63,13243,17.94,73818.0,3.25,2.51,2.43,0,*7D
1531537430.85,13244,17.94,73822.3,3.25,2.51,2.43,0,*7A
1531537432.09,13245,17.94,73828.3,3.25,2.51,2.51,0,*78
1531537433.31,13246,17.94,73826.3,3.25,2.39,2.43,0,*76
1531537434.54,13247,17.94,73834.3,3.25,2.43,2.39,0,*77
1531537435.77,13248,17.94,73832.8,3.25,2.51,2.51,0,*75
1531537437.0,13249,17.94,73832.0,3.25,2.43,2.43,0,*74
1531537438.23,13250,17.94,73834.3,3.25,2.51,2.51,0,*7C
1531537439.4,13251,17.94,73842.0,3.25,2.27,2.27,0,*7D
1531537440.57,13252,17.94,73828.5,3.25,2.31,2.31,0,*7E
1531537441.8,13253,17.94,73838.8,3.25,2.39,2.39,0,*7F
1531537443.02,13254,17.94,73824.5,3.21,2.51,2.47,0,*7B
1531537444.23,13255,17.94,73828.0,3.25,2.65,2.59,0,*76
1531537445.45,13256,17.94,73840.5,3.25,2.69,2.69,0,*7A
1531537446.67,13257,17.94,73830.5,3.21,2.55,2.55,0,*7F
1531537447.9,13258,17.94,73834.8,3.25,2.47,2.51,0,*73
1531537449.15,13259,17.94,73860.5,3.27,2.59,2.59,0,*77
1531537450.38,13260,17.94,73852.3,3.25,2.51,2.55,0,*7B
1531537451.6,13261,17.94,73838.8,3.27,2.31,2.39,0,*74
1531537452.83,13262,17.94,73820.0,3.25,2.39,2.43,0,*70
1531537454.08,13263,17.94,73818.3,3.27,2.51,2.51,0,*7E
1531537455.31,13264,17.94,73814.5,3.27,2.65,2.59,0,*76
1531537456.54,13265,17.94,73802.3,3.27,2.69,2.65,0,*74
1531537457.79,13266,17.94,73838.8,3.27,2.69,2.81,0,*7D
1531537459.04,13267,17.94,73832.8,3.27,2.81,2.77,0,*73
1531537460.29,13268,17.94,73848.5,3.27,2.77,2.77,0,*75
1531537461.52,13269,17.94,73840.0,3.27,2.65,2.59,0,*7B
1531537462.77,13270,17.94,73842.0,3.27,2.39,2.39,0,*7C
1531537464.02,13271,17.94,73840.3,3.27,2.43,2.43,0,*7D
1531537465.28,13272,17.94,73844.8,3.27,2.51,2.51,0,*7E
1531537466.53,13273,17.94,73836.8,3.27,2.43,2.43,0,*7F
1531537467.79,13274,17.94,73838.5,3.27,2.51,2.51,0,*78
1531537469.05,13275,17.94,73844.3,3.27,2.51,2.51,0,*79
1531537470.3,13276,17.94,73840.0,3.27,2.51,2.51,0,*7A
1531537471.55,13277,17.94,73848.8,3.27,2.51,2.55,0,*7F
1531537472.78,13278,17.94,73838.3,3.29,2.47,2.55,0,*79
1531537474.04,13279,17.94,73818.3,3.27,2.51,2.51,0,*75
1531537475.29,13280,17.94,73828.3,3.27,2.59,2.59,0,*73
1531537476.51,13281,17.94,73830.3,3.29,2.73,2.69,0,*77
1531537477.74,13282,17.94,73840.0,3.29,2.73,2.73,0,*7F
1531537478.97,13283,17.94,73842.8,3.29,2.73,2.81,0,*73
1531537480.22,13284,17.94,73848.0,3.27,2.69,2.77,0,*78
1531537481.45,13285,17.94,73844.3,3.29,2.81,2.73,0,*75
1531537482.68,13286,17.94,73850.5,3.29,2.81,2.81,0,*7B
1531537483.91,13287,17.94,73840.0,3.29,2.73,2.81,0,*77
1531537485.14,13288,17.94,73844.5,3.29,2.69,2.73,0,*7E
1531537486.36,13289,17.94,73860.8,3.29,2.69,2.73,0,*7F
1531537487.6,13290,17.94,73864.3,3.29,2.59,2.59,0,*7C
1531537488.83,13291,17.94,73858.5,3.29,2.59,2.59,0,*7D
1531537490.03,13292,17.94,73864.8,3.29,2.35,2.43,0,*7F
1531537491.26,13293,17.94,73870.0,3.29,2.55,2.55,0,*7F
1531537492.52,13294,17.94,73864.3,3.27,2.51,2.51,0,*76
1531537493.75,13295,17.94,73856.8,3.29,2.51,2.47,0,*7E
1531537495.0,13296,17.94,73860.5,3.27,2.51,2.51,0,*74
1531537496.23,13297,17.94,73832.5,3.29,2.55,2.55,0,*7B
1531537497.46,13298,17.94,73842.8,3.29,2.47,2.55,0,*77
1531537498.72,13299,17.94,73846.8,3.27,2.51,2.51,0,*7B
1531537499.94,13300,17.94,73862.8,3.29,2.55,2.55,0,*74
1531537501.17,13301,17.94,73864.0,3.29,2.55,2.59,0,*79
1531537502.42,13302,17.94,73854.3,3.27,2.59,2.59,0,*78
1531537503.61,13303,17.94,73856.5,3.29,2.61,2.61,0,*77
1531537504.86,13304,17.94,73844.8,3.27,2.55,2.51,0,*7A
1531537506.11,13305,17.94,73818.0,3.27,2.43,2.43,0,*7F
1531537507.37,13306,17.94,73818.5,3.27,2.51,2.51,0,*7C
1531537508.6,13307,17.94,73818.0,3.29,2.51,2.47,0,*74
1531537509.83,13308,17.94,73822.3,3.29,2.55,2.55,0,*7C
1531537511.07,13309,17.94,73832.5,3.27,2.55,2.55,0,*73
1531537512.28,13310,17.94,73834.8,3.29,2.61,2.73,0,*76
1531537513.48,13311,17.94,73836.5,3.29,2.61,2.69,0,*7C
1531537514.68,13312,17.94,73836.5,3.29,2.61,2.69,0,*7F
1531537515.91,13313,17.94,73824.8,3.29,2.59,2.59,0,*76
1531537517.15,13314,17.94,73824.5,3.29,2.59,2.59,0,*71
1531537518.37,13315,17.94,73824.3,3.29,2.59,2.55,0,*7C
1531537519.61,13316,17.94,73822.8,3.29,2.59,2.59,0,*73
1531537520.79,13317,17.94,73828.5,3.29,2.61,2.61,0,*72
1531537522.02,13318,17.94,73830.0,3.29,2.55,2.55,0,*7D
1531537523.27,13319,17.94,73830.8,3.27,2.51,2.51,0,*72
1531537524.49,13320,17.94,73796.5,3.29,2.59,2.61,0,*7D
1531537525.73,13321,17.94,73790.0,3.27,2.59,2.55,0,*75
1531537526.92,13322,17.94,73778.3,3.29,2.61,2.61,0,*74
1531537528.14,13323,17.94,73774.3,3.29,2.69,2.69,0,*75
1531537529.35,13324,17.94,73754.5,3.29,2.61,2.73,0,*71
1531537530.6,13325,17.94,73740.0,3.27,2.59,2.59,0,*7D
1531537531.83,13326,17.94,73742.8,3.29,2.59,2.59,0,*70
1531537533.04,13327,17.94,73744.5,3.29,2.59,2.61,0,*7A
1531537534.28,13328,17.94,73758.5,3.29,2.59,2.59,0,*7E
1531537535.5,13329,17.94,73780.3,3.29,2.55,2.55,0,*7F
1531537536.75,13330,17.94,73794.8,3.27,2.59,2.59,0,*79
1531537537.97,13331,17.94,73784.3,3.29,2.59,2.61,0,*7D
1531537539.15,13332,17.94,73774.0,3.29,2.61,2.61,0,*75
1531537540.36,13333,17.94,73762.3,3.29,2.59,2.61,0,*7F
1531537541.58,13334,17.94,73798.0,3.29,2.59,2.61,0,*78
1531537542.8,13335,17.94,73810.3,3.29,2.69,2.69,0,*72
1531537544.02,13336,17.94,73830.0,3.29,2.69,2.69,0,*71
1531537545.25,13337,17.94,73824.8,3.29,2.73,2.69,0,*7B
1531537546.48,13338,17.94,73830.8,3.29,2.59,2.59,0,*7F
1531537547.72,13339,17.94,73830.3,3.27,2.55,2.55,0,*70
1531537548.95,13340,17.94,73846.3,3.29,2.69,2.59,0,*73
1531537550.16,13341,17.94,73806.5,3.29,2.61,2.59,0,*7A
1531537551.39,13342,17.94,73810.8,3.29,2.59,2.59,0,*72
1531537552.62,13343,17.94,73826.3,3.29,2.47,2.47,0,*73
1531537553.85,13344,17.94,73822.3,3.29,2.47,2.47,0,*74
1531537555.08,13345,17.94,73816.8,3.29,2.59,2.55,0,*79
1531537556.3,13346,17.94,73834.0,3.31,2.61,2.73,0,*7C
1531537557.53,13347,17.94,73824.5,3.29,2.73,2.85,0,*7E
1531537558.73,13348,17.94,73844.0,3.29,2.81,2.91,0,*79
1531537559.98,13349,17.94,73844.0,3.31,2.69,2.73,0,*7B
1531537561.22,13350,17.94,73844.0,3.31,2.73,2.73,0,*78
1531537562.48,13351,17.94,73870.0,3.33,2.89,2.89,0,*7B
1531537563.73,13352,17.94,73868.8,3.31,2.85,2.85,0,*7A
1531537564.97,13353,17.94,73880.3,3.31,2.85,2.85,0,*7B
1531537566.22,13354,17.94,73878.5,3.31,2.81,2.85,0,*78
1531537567.47,13355,17.94,73870.5,3.31,2.81,2.81,0,*7D
1531537568.72,13356,17.94,73866.5,3.31,2.81,2.85,0,*7A
1531537569.98,13357,17.94,73866.0,3.33,2.89,2.89,0,*7D
1531537571.24,13358,17.94,73866.0,3.33,2.85,2.89,0,*7E
1531537572.49,13359,17.94,73860.8,3.33,2.89,2.85,0,*7F
1531537573.75,13360,17.94,73868.8,3.33,2.77,2.73,0,*7D
1531537575.0,13361,17.94,73868.5,3.31,2.81,2.81,0,*7A
1531537576.26,13362,17.94,73866.3,3.31,2.81,2.81,0,*79
1531537577.51,13363,17.94,73860.3,3.33,2.85,2.85,0,*7A
1531537578.77,13364,17.94,73858.8,3.33,2.73,2.77,0,*79
1531537579.95,13365,17.94,73856.5,3.35,2.65,2.65,0,*7A
1531537581.17,13366,17.94,73836.0,3.33,2.65,2.65,0,*7F
1531537582.39,13367,17.94,73840.3,3.35,2.69,2.69,0,*78
1531537583.65,13368,17.94,73838.8,3.33,2.77,2.77,0,*71
1531537584.9,13369,17.94,73846.3,3.33,2.89,2.85,0,*7C
1531537586.16,13370,17.94,73842.8,3.33,2.85,2.85,0,*78
1531537587.39,13371,17.94,73846.8,3.35,2.89,2.89,0,*7F
1531537588.58,13372,17.94,73834.8,3.35,2.65,2.65,0,*7C
1531537589.84,13373,17.94,73852.3,3.33,2.59,2.59,0,*7B
1531537591.1,13374,17.94,73844.0,3.33,2.47,2.51,0,*7B
1531537592.31,13375,17.94,73844.8,3.33,2.61,2.61,0,*7D
1531537593.53,13376,17.94,73842.3,3.33,2.65,2.65,0,*7E
1531537594.75,13377,17.94,73830.8,3.33,2.65,2.61,0,*7B
1531537595.96,13378,17.94,73806.5,3.33,2.61,2.61,0,*70
1531537597.17,13379,17.94,73832.0,3.33,2.61,2.61,0,*71
1531537598.39,13380,17.94,73846.5,3.33,2.61,2.61,0,*77
1531537599.6,13381,17.94,73848.5,3.33,2.61,2.61,0,*76
1531537600.79,13382,17.94,73852.0,3.35,2.65,2.65,0,*73
1531537602.02,13383,17.94,73860.5,3.35,2.69,2.69,0,*72
1531537603.27,13384,17.94,73878.8,3.33,2.73,2.73,0,*73
1531537604.5,13385,17.94,73866.3,3.35,2.89,2.81,0,*7C
1531537605.74,13386,17.94,73854.3,3.35,2.81,2.81,0,*77
1531537607.0,13387,17.94,73854.3,3.33,2.77,2.77,0,*70
1531537608.25,13388,17.94,73850.0,3.33,2.85,2.89,0,*73
1531537609.51,13389,17.94,73844.5,3.33,2.85,2.89,0,*72
1531537610.76,13390,17.94,73844.0,3.33,2.89,2.85,0,*7A
1531537612.0,13391,17.94,73840.0,3.35,2.89,2.81,0,*79
1531537613.23,13392,17.94,73832.3,3.35,2.89,2.81,0,*7A
1531537614.46,13393,17.94,73836.5,3.35,2.89,2.89,0,*73
1531537615.72,13394,17.94,73840.3,3.37,2.81,2.89,0,*7E
1531537616.96,13395,17.94,73844.3,3.35,2.81,2.89,0,*7D
1531537618.21,13396,17.94,73850.5,3.37,2.89,2.81,0,*7C
1531537619.45,13397,17.94,73848.0,3.35,2.89,2.81,0,*7F
1531537620.68,13398,17.94,73858.5,3.35,2.77,2.77,0,*78
1531537621.94,13399,17.94,73860.5,3.37,2.81,2.81,0,*7B
1531537623.19,13400,17.94,73854.8,3.37,2.77,2.81,0,*75
1531537624.45,13401,17.94,73854.0,3.37,2.77,2.77,0,*7D
1531537625.7,13402,17.94,73846.5,3.37,2.69,2.69,0,*7E
1531537626.95,13403,17.94,73858.5,3.37,2.77,2.69,0,*70
1531537628.17,13404,17.94,73854.3,3.35,2.69,2.69,0,*7A
1531537629.38,13405,17.94,73850.8,3.35,2.69,2.65,0,*77
1531537630.59,13406,17.94,73838.5,3.37,2.65,2.65,0,*7A
1531537631.8,13407,17.94,73846.8,3.37,2.61,2.65,0,*7F
1531537633.01,13408,17.94,73824.3,3.35,2.55,2.61,0,*71
1531537634.2,13409,17.94,73820.3,3.35,2.61,2.61,0,*77
1531537635.41,13410,17.94,73820.0,3.35,2.69,2.61,0,*77
1531537636.66,13411,17.94,73814.3,3.37,2.69,2.69,0,*7C
1531537637.88,13412,17.94,73802.5,3.35,2.69,2.69,0,*7D
1531537639.11,13413,17.94,73824.3,3.37,2.69,2.65,0,*72
1531537640.3,13414,17.94,73828.5,3.35,2.65,2.65,0,*7B
1531537641.51,13415,17.94,73832.5,3.37,2.65,2.65,0,*78
1531537642.7,13416,17.94,73824.3,3.35,2.65,2.65,0,*79
1531537643.91,13417,17.94,73844.0,3.35,2.55,2.65,0,*7B
1531537645.09,13418,17.94,73836.0,3.35,2.61,2.61,0,*77
1531537646.28,13419,17.94,73826.8,3.35,2.61,2.61,0,*76
1531537647.47,13420,17.94,73814.8,3.35,2.61,2.61,0,*7C
1531537648.66,13421,17.94,73804.8,3.35,2.61,2.61,0,*7D
1531537649.89,13422,17.94,73806.5,3.33,2.61,2.59,0,*73
1531537651.08,13423,17.94,73808.3,3.35,2.65,2.65,0,*7F
1531537652.27,13424,17.94,73808.5,3.35,2.65,2.61,0,*7C
1531537653.45,13425,17.94,73814.8,3.35,2.61,2.61,0,*79
1531537654.64,13426,17.94,73810.0,3.35,2.61,2.61,0,*7A
1531537655.83,13427,17.94,73794.8,3.35,2.61,2.61,0,*7B
1531537657.02,13428,17.94,73798.0,3.35,2.61,2.61,0,*74
1531537658.23,13429,17.94,73822.3,3.37,2.65,2.61,0,*73
1531537659.42,13430,17.94,73810.5,3.35,2.65,2.61,0,*79
1531537660.61,13431,17.94,73814.8,3.35,2.65,2.61,0,*78
1531537661.84,13432,17.94,73828.5,3.35,2.43,2.43,0,*7F
1531537663.07,13433,17.94,73814.5,3.35,2.21,2.21,0,*7E
1531537664.28,13434,17.94,73806.5,3.35,2.31,2.39,0,*71
1531537665.54,13435,17.94,73786.0,3.33,2.51,2.51,0,*7E
1531537666.79,13436,17.94,73800.0,3.31,2.47,2.47,0,*7F
1531537667.99,13437,17.94,73816.0,3.31,2.31,2.35,0,*7A
1531537669.25,13438,17.94,73824.3,3.33,2.47,2.47,0,*73
1531537670.51,13439,17.94,73828.8,3.33,2.39,2.47,0,*7B
1531537671.74,13440,17.94,73826.0,3.33,2.39,2.35,0,*70
1531537672.99,13441,17.94,73832.3,3.31,2.55,2.55,0,*7F
1531537674.22,13442,17.94,73832.8,3.33,2.65,2.73,0,*79
1531537675.43,13443,17.94,73832.3,3.33,2.61,2.65,0,*7B
1531537676.65,13444,17.94,73840.0,3.33,2.61,2.61,0,*78
1531537677.86,13445,17.94,73842.3,3.33,2.61,2.61,0,*79
1531537679.07,13446,17.94,73856.5,3.33,2.61,2.61,0,*7A
1531537680.32,13447,17.94,73834.8,3.33,2.59,2.61,0,*70
1531537681.56,13448,17.94,73798.5,3.33,2.59,2.61,0,*7F
1531537682.81,13449,17.94,73796.8,3.31,2.55,2.59,0,*7B
1531537684.07,13450,17.94,73812.0,3.33,2.47,2.51,0,*7A
1531537685.32,13451,17.94,73836.5,3.31,2.47,2.47,0,*7E
1531537686.56,13452,17.94,73840.0,3.33,2.59,2.61,0,*74
1531537687.77,13453,17.94,73846.0,3.31,2.61,2.61,0,*7C
1531537689.02,13454,17.94,73852.3,3.33,2.77,2.73,0,*7D
1531537690.27,13455,17.94,73866.0,3.31,2.73,2.73,0,*7A
1531537691.53,13456,17.94,73874.5,3.33,2.77,2.77,0,*7B
1531537692.79,13457,17.94,73880.0,3.33,2.89,2.81,0,*72
1531537694.04,13458,17.94,73868.5,3.33,2.89,2.89,0,*75
1531537695.3,13459,17.94,73862.8,3.33,2.73,2.73,0,*74
1531537696.55,13460,17.94,73862.8,3.33,2.77,2.73,0,*7A
1531537697.79,13461,17.94,73854.5,3.35,2.81,2.81,0,*79
1531537699.03,13462,17.94,73846.0,3.35,2.81,2.81,0,*7A
1531537700.28,13463,17.94,73842.3,3.37,2.89,2.89,0,*79
1531537701.52,13464,17.94,73860.8,3.35,2.81,2.81,0,*7C
1531537702.75,13465,17.94,73880.5,3.35,2.89,2.81,0,*75
1531537704.01,13466,17.94,73898.3,3.33,2.77,2.85,0,*75
1531537705.26,13467,17.94,73902.5,3.37,2.81,2.77,0,*74
1531537706.52,13468,17.94,73894.8,3.37,2.77,2.77,0,*72
1531537707.77,13469,17.94,73872.3,3.37,2.77,2.81,0,*7A
1531537709.03,13470,17.94,73876.3,3.37,2.81,2.81,0,*7B
1531537710.29,13471,17.94,73886.0,3.37,2.81,2.77,0,*73
1531537711.52,13472,17.94,73874.0,3.35,2.69,2.69,0,*7B
1531537712.7,13473,17.94,73862.0,3.35,2.61,2.65,0,*7E
1531537713.93,13474,17.94,73852.0,3.35,2.81,2.69,0,*7B
1531537715.16,13475,17.94,73850.0,3.37,2.69,2.65,0,*72
1531537716.37,13476,17.94,73852.5,3.37,2.65,2.65,0,*7D
1531537717.56,13477,17.94,73852.0,3.35,2.61,2.61,0,*7E
1531537718.79,13478,17.94,73850.3,3.37,2.61,2.55,0,*74
1531537720.01,13479,17.94,73848.0,3.35,2.55,2.55,0,*70
1531537721.24,13480,17.94,73826.8,3.37,2.61,2.55,0,*73
1531537722.47,13481,17.94,73802.5,3.35,2.55,2.55,0,*77
1531537723.73,13482,17.94,73772.0,3.37,2.51,2.55,0,*72
1531537724.96,13483,17.94,73758.8,3.37,2.59,2.61,0,*7C
1531537726.2,13484,17.94,73798.0,3.35,2.81,2.81,0,*72
1531537727.41,13485,17.94,73812.3,3.37,2.65,2.65,0,*71
1531537728.62,13486,17.94,73822.5,3.35,2.65,2.69,0,*7C
1531537729.87,13487,17.94,73834.5,3.37,2.69,2.69,0,*73
1531537731.07,13488,17.94,73836.0,3.35,2.65,2.69,0,*72
1531537732.28,13489,17.94,73838.3,3.35,2.69,2.65,0,*73
1531537733.49,13490,17.94,73858.3,3.35,2.69,2.65,0,*7B
1531537734.68,13491,17.94,73842.0,3.35,2.65,2.65,0,*76
1531537735.86,13492,17.94,73840.3,3.35,2.65,2.65,0,*75